Total_Precipitation_Accumulation
0.00 0.00 0.00 0.00 0.00 0.00 0.00 0.00 0.00 0.01 0.00 0.00 0.01 0.03 0.04 0.05 0.04 0.06 0.08 0.12 0.18 0.27 0.38 0.58 0.70 0.93 1.14 1.27 1.41 1.45 1.52 1.65 1.80 2.01 2.03 2.14 2.36 2.68 2.96 3.15 3.20 3.20 3.12 3.07
0.00 0.00 0.00 0.00 0.00 0.00 0.00 0.00 0.00 0.01 0.01 0.01 0.03 0.06 0.08 0.10 0.11 0.14 0.20 0.21 0.21 0.31 0.43 0.67 0.87 1.20 1.43 1.57 1.67 1.77 1.86 2.14 2.54 2.91 3.31 3.62 3.75 3.76 3.95 4.04 4.03 3.88 3.73 3.54
0.00 0.00 0.00 0.00 0.00 0.00 0.00 0.00 0.01 0.01 0.03 0.03 0.05 0.14 0.18 0.18 0.20 0.24 0.27 0.28 0.33 0.45 0.58 0.74 0.95 1.27 1.49 1.63 1.81 1.93 2.19 2.80 3.54 3.86 4.15 4.70 4.96 4.69 4.45 4.30 4.19 4.11 4.09 4.00
0.00 0.00 0.00 0.00 0.00 0.00 0.00 0.00 0.00 0.01 0.02 0.06 0.06 0.18 0.27 0.27 0.29 0.27 0.31 0.35 0.41 0.52 0.68 0.82 0.97 1.25 1.55 1.85 1.92 2.09 2.58 3.31 3.94 4.38 4.88 5.38 5.57 5.54 5.40 4.93 4.42 3.97 3.64 3.44
0.00 0.00 0.00 0.00 0.00 0.00 0.00 0.00 0.00 0.01 0.01 0.04 0.06 0.18 0.39 0.46 0.48 0.46 0.45 0.44 0.43 0.49 0.68 0.83 0.96 1.17 1.34 1.60 1.98 2.23 2.77 3.43 4.09 4.76 5.37 5.72 5.91 5.85 5.44 4.67 3.91 3.48 3.19 2.89
0.00 0.00 0.00 0.01 0.00 0.00 0.00 0.00 0.00 0.01 0.02 0.06 0.06 0.15 0.46 0.73 0.80 0.73 0.63 0.64 0.60 0.49 0.56 0.70 0.88 0.98 1.25 1.50 1.80 2.21 2.52 3.12 3.78 4.34 4.83 4.96 5.08 5.00 4.57 4.10 3.60 3.22 2.78 2.30
0.01 0.01 0.01 0.00 0.00 0.00 0.00 0.01 0.03 0.05 0.06 0.10 0.08 0.20 0.56 0.88 0.88 0.72 0.64 0.66 0.64 0.50 0.50 0.72 0.96 0.91 1.13 1.44 1.79 2.16 2.55 2.93 3.42 3.90 4.33 4.54 4.63 4.40 3.92 3.50 3.09 2.63 2.19 1.80
0.02 0.02 0.02 0.01 0.00 0.01 0.01 0.01 0.06 0.09 0.10 0.14 0.18 0.39 0.67 0.83 0.79 0.66 0.61 0.57 0.53 0.51 0.53 0.67 0.85 0.92 1.14 1.35 1.65 2.00 2.32 2.64 2.83 3.02 3.30 3.49 3.61 3.44 3.10 2.60 2.15 1.85 1.60 1.37
0.07 0.06 0.02 0.01 0.01 0.01 0.01 0.02 0.02 0.03 0.05 0.16 0.39 0.57 0.75 0.77 0.67 0.64 0.60 0.55 0.56 0.55 0.56 0.63 0.76 0.88 1.10 1.39 1.64 1.90 2.04 2.19 2.35 2.44 2.46 2.49 2.57 2.44 2.20 1.93 1.63 1.35 1.10 0.91
0.07 0.12 0.05 0.01 0.01 0.01 0.01 0.02 0.03 0.04 0.10 0.20 0.45 0.73 0.93 1.05 1.01 0.85 0.72 0.65 0.58 0.58 0.59 0.62 0.69 0.77 0.87 1.00 1.27 1.49 1.60 1.68 1.73 1.77 1.79 1.80 1.79 1.69 1.58 1.42 1.22 0.99 0.81 0.66
0.08 0.13 0.08 0.02 0.02 0.02 0.02 0.03 0.05 0.07 0.08 0.18 0.43 0.90 1.16 1.32 1.28 1.08 0.87 0.76 0.71 0.67 0.63 0.61 0.64 0.65 0.70 0.75 0.90 1.10 1.23 1.25 1.32 1.38 1.34 1.27 1.30 1.24 1.15 1.10 1.02 0.87 0.74 0.61
0.10 0.14 0.13 0.06 0.04 0.03 0.03 0.04 0.05 0.11 0.12 0.17 0.41 1.14 1.60 1.65 1.46 1.15 0.97 0.88 0.86 0.78 0.68 0.62 0.58 0.53 0.57 0.62 0.67 0.77 0.86 0.86 0.89 0.92 0.92 0.95 0.96 0.96 0.90 0.83 0.73 0.60 0.51 0.45
0.07 0.14 0.28 0.26 0.19 0.09 0.06 0.06 0.06 0.07 0.11 0.19 0.43 1.32 1.96 1.87 1.61 1.34 1.12 1.07 1.08 0.98 0.81 0.66 0.53 0.45 0.48 0.55 0.59 0.62 0.64 0.65 0.65 0.63 0.66 0.71 0.70 0.68 0.64 0.58 0.53 0.48 0.41 0.35
0.06 0.15 0.36 0.61 0.45 0.24 0.15 0.09 0.08 0.10 0.18 0.28 0.47 0.87 1.18 1.28 1.32 1.35 1.45 1.53 1.40 1.13 0.93 0.73 0.62 0.53 0.53 0.59 0.58 0.58 0.58 0.54 0.52 0.52 0.56 0.60 0.58 0.55 0.51 0.44 0.36 0.32 0.29 0.27
0.11 0.22 0.23 0.25 0.23 0.24 0.22 0.18 0.15 0.16 0.20 0.40 0.66 0.89 1.13 1.22 1.26 1.33 1.50 1.46 1.30 1.14 1.00 0.85 0.76 0.72 0.66 0.60 0.55 0.56 0.61 0.59 0.55 0.52 0.51 0.53 0.49 0.45 0.43 0.40 0.34 0.28 0.23 0.20
0.11 0.19 0.21 0.24 0.21 0.25 0.26 0.26 0.25 0.28 0.34 0.52 0.77 1.10 1.39 1.39 1.34 1.37 1.46 1.43 1.28 1.09 0.97 0.89 0.85 0.85 0.76 0.66 0.57 0.54 0.59 0.61 0.57 0.52 0.49 0.46 0.44 0.41 0.37 0.33 0.30 0.26 0.20 0.14
0.14 0.24 0.30 0.32 0.24 0.34 0.51 0.41 0.39 0.42 0.47 0.61 0.87 1.08 1.24 1.29 1.28 1.34 1.43 1.50 1.42 1.22 1.10 1.07 1.10 1.08 0.96 0.82 0.71 0.64 0.63 0.61 0.60 0.58 0.52 0.48 0.43 0.38 0.33 0.25 0.22 0.21 0.18 0.13
0.14 0.21 0.27 0.28 0.36 0.63 0.63 0.34 0.39 0.45 0.47 0.53 0.62 0.80 0.97 1.06 1.11 1.25 1.40 1.50 1.47 1.40 1.36 1.36 1.33 1.21 1.08 0.97 0.86 0.74 0.67 0.63 0.64 0.62 0.54 0.43 0.33 0.26 0.22 0.21 0.20 0.16 0.14 0.13
0.08 0.17 0.26 0.33 0.50 0.70 0.59 0.35 0.31 0.46 0.52 0.49 0.53 0.56 0.60 0.63 0.72 1.03 1.21 1.28 1.32 1.36 1.34 1.25 1.17 1.11 1.04 0.92 0.82 0.70 0.63 0.57 0.56 0.52 0.44 0.35 0.28 0.23 0.21 0.21 0.21 0.17 0.14 0.12
0.07 0.12 0.28 0.38 0.53 0.72 0.63 0.28 0.18 0.35 0.67 0.56 0.51 0.51 0.54 0.61 0.67 0.75 0.85 0.89 0.97 1.02 1.04 1.02 0.97 0.92 0.85 0.77 0.66 0.57 0.51 0.45 0.41 0.37 0.34 0.28 0.24 0.23 0.22 0.19 0.18 0.14 0.13 0.12
0.19 0.22 0.31 0.41 0.55 0.63 0.31 0.15 0.24 0.60 0.82 0.66 0.58 0.56 0.60 0.67 0.60 0.48 0.51 0.61 0.72 0.81 0.86 0.84 0.83 0.80 0.68 0.54 0.46 0.42 0.39 0.35 0.28 0.23 0.24 0.22 0.20 0.19 0.18 0.18 0.16 0.14 0.15 0.15
0.26 0.34 0.37 0.44 0.59 0.65 0.21 0.15 0.36 0.49 0.44 0.49 0.49 0.49 0.47 0.41 0.33 0.34 0.37 0.43 0.49 0.60 0.71 0.69 0.62 0.55 0.45 0.38 0.36 0.34 0.32 0.26 0.20 0.19 0.21 0.19 0.17 0.14 0.13 0.15 0.15 0.13 0.14 0.14
0.21 0.22 0.29 0.40 0.50 0.39 0.15 0.15 0.21 0.22 0.30 0.31 0.31 0.32 0.26 0.22 0.24 0.26 0.31 0.36 0.40 0.44 0.51 0.52 0.47 0.41 0.37 0.34 0.32 0.29 0.24 0.21 0.20 0.21 0.21 0.18 0.14 0.12 0.12 0.13 0.13 0.12 0.13 0.12
0.19 0.10 0.09 0.18 0.26 0.19 0.12 0.10 0.12 0.14 0.19 0.20 0.25 0.31 0.25 0.20 0.21 0.22 0.25 0.31 0.35 0.38 0.37 0.37 0.35 0.32 0.31 0.27 0.24 0.21 0.17 0.17 0.22 0.24 0.21 0.18 0.16 0.15 0.12 0.10 0.08 0.08 0.09 0.09
0.16 0.11 0.10 0.12 0.16 0.15 0.15 0.11 0.07 0.09 0.11 0.15 0.24 0.33 0.31 0.23 0.22 0.21 0.22 0.26 0.30 0.34 0.35 0.34 0.31 0.28 0.22 0.20 0.17 0.13 0.13 0.15 0.19 0.19 0.17 0.18 0.17 0.15 0.13 0.10 0.06 0.04 0.05 0.03
0.10 0.11 0.14 0.16 0.15 0.15 0.16 0.11 0.08 0.13 0.18 0.22 0.28 0.36 0.31 0.25 0.22 0.20 0.22 0.23 0.24 0.28 0.30 0.30 0.26 0.22 0.18 0.15 0.13 0.11 0.11 0.11 0.16 0.17 0.14 0.13 0.13 0.12 0.10 0.12 0.11 0.04 0.01 0.01